Вернуться в каталог

COSMOS 2251 DEB

АктивенLEO
NORAD 35611·DEBRIS·🇷🇺 Russia

Запущен Jun 16, 1993 с Plesetsk Cosmodrome

Loading…

Ближайшие Пролёты (ближайшие 24 часа)

TLE

СвежийSource: Space-Track

Эпоха: Sep 14, 2026, 06:23 UTC

1 35611U 93036ANE 26257.26665459  .00007722  00000-0  10308-2 0  9994
2 35611  74.0206 358.8168 0020692   3.9405 356.1930 14.79569637913575

Отслеживайте COSMOS 2251 DEB в реальном времени с AllMySat

Download on the App Store